Change the Weather History Date:

Tuesday, August 14, 2012

  Actual Average Record
Temperature  
Mean Temperature 68 °F 69 °F  
Max Temperature 84 °F 82 °F 99 °F (1937)
Min Temperature 52 °F 57 °F 32 °F (1921)
Cooling Degree Days 3 5  
Month to date cooling degree days 53 83  
Year to date cooling degree days 450 341  
Since 1 June cooling degree days 445 325  
Growing Degree Days 17 (Base 50)    
Moisture  
Dew Point 52 °F    
Average Humidity 61    
Maximum Humidity 89    
Minimum Humidity 33    
Precipitation  
Precipitation 0.00 in 0.07 in 5.73 in (1987)
Month to date precipitation 0.87 0.93  
Year to date precipitation 10.56 12.33  
Sea Level Pressure  
Sea Level Pressure 29.83 in    
Wind  
Wind Speed 10 mph (SE)    
Max Wind Speed 21 mph    
Max Gust Speed 29 mph    
Visibility 10 miles    
Events      
T = Trace of Precipitation, MM = Missing Value Source: NWS Daily Summary

Daily Weather History Graph

Daily Weather History Graph

Search for Another Location

Airport or City:

Trip Planner

Search our weather history database for the weather conditions in past years. The results will help you decide how hot, cold, wet, or windy it might be!

Date:

Astronomy

Aug. 14, 2012 Rise Set
Actual Time 6:38 AM CDT 8:59 PM CDT
Civil Twilight 6:04 AM CDT 9:34 PM CDT
Nautical Twilight 5:20 AM CDT 10:17 PM CDT
Astronomical Twilight 4:31 AM CDT 11:06 PM CDT
Moon 3:30 AM CDT (8/14) 7:01 PM CDT (8/14)
Length of Visible Light 15h 29m
Length of Day
14h 21m
Waning Crescent, 9% of the Moon is Illuminated
Aug 14
Waning Crescent
Aug 17
New
Aug 24
First Quarter
Aug 31
Full
Sep 8
Last Quarter

Hourly Weather History & Observations

Time (CDT) Temp. Heat Index Dew Point Humidity Pressure Visibility Wind Dir Wind Speed Gust Speed Precip Events Conditions
12:54 AM 55.0 °F - 50.0 °F 83% 29.98 in 10.0 mi ENE 3.5 mph - N/A   Partly Cloudy
1:54 AM 52.0 °F - 48.9 °F 89% 29.98 in 10.0 mi North 3.5 mph - N/A   Partly Cloudy
2:54 AM 54.0 °F - 50.0 °F 86% 29.96 in 10.0 mi Calm Calm - N/A   Overcast
3:54 AM 57.0 °F - 51.1 °F 81% 29.94 in 10.0 mi Calm Calm - N/A   Overcast
4:54 AM 55.0 °F - 52.0 °F 89% 29.94 in 10.0 mi Calm Calm - N/A   Overcast
5:54 AM 55.9 °F - 52.0 °F 87% 29.92 in 10.0 mi East 4.6 mph - N/A   Overcast
6:54 AM 55.0 °F - 52.0 °F 89% 29.92 in 10.0 mi East 3.5 mph - N/A   Overcast
7:54 AM 59.0 °F - 53.1 °F 81% 29.92 in 10.0 mi SE 5.8 mph - N/A   Overcast
8:54 AM 62.1 °F - 54.0 °F 75% 29.91 in 10.0 mi SE 4.6 mph - N/A   Mostly Cloudy
9:54 AM 66.0 °F - 55.0 °F 68% 29.90 in 10.0 mi SE 5.8 mph - N/A   Overcast
10:54 AM 73.9 °F - 52.0 °F 46% 29.88 in 10.0 mi SSE 10.4 mph - N/A   Clear
11:54 AM 78.1 °F - 51.1 °F 39% 29.85 in 10.0 mi SSE 12.7 mph 21.9 mph N/A   Clear
12:54 PM 80.1 °F - 51.1 °F 36% 29.82 in 10.0 mi SE 19.6 mph 27.6 mph N/A   Clear
1:54 PM 81.0 °F - 50.0 °F 34% 29.81 in 10.0 mi SE 19.6 mph 26.5 mph N/A   Clear
2:54 PM 82.9 °F - 50.0 °F 32% 29.78 in 10.0 mi SSE 15.0 mph 25.3 mph N/A   Clear
3:54 PM 82.9 °F - 52.0 °F 34% 29.76 in 10.0 mi SSE 16.1 mph 24.2 mph N/A   Partly Cloudy
4:54 PM 82.0 °F 81.2 °F 53.1 °F 37% 29.75 in 10.0 mi South 15.0 mph - N/A   Scattered Clouds
5:54 PM 82.9 °F - 52.0 °F 34% 29.73 in 10.0 mi South 16.1 mph 21.9 mph N/A   Clear
6:54 PM 82.0 °F - 52.0 °F 35% 29.71 in 10.0 mi SSE 16.1 mph 20.7 mph N/A   Clear
7:54 PM 79.0 °F - 54.0 °F 42% 29.70 in 10.0 mi SE 11.5 mph 20.7 mph N/A   Clear
8:54 PM 75.9 °F - 55.0 °F 48% 29.68 in 10.0 mi SE 13.8 mph - N/A   Clear
9:54 PM 73.0 °F - 55.0 °F 53% 29.68 in 10.0 mi SE 11.5 mph - N/A   Clear
10:54 PM 70.0 °F - 55.0 °F 59% 29.67 in 10.0 mi SE 11.5 mph - N/A   Clear
11:54 PM 68.0 °F - 55.9 °F 65% 29.65 in 10.0 mi SE 10.4 mph - N/A   Clear